Flag for Germany Weather past 2 weeks in Gronau (Westfalen), North Rhine-Westphalia, Germany

Now
64 °F

Partly sunny.


Feels Like: 64 °F
Forecast: 57 / 64 °F
Wind: 6 mph from Southwest

Location: Twenthe

Current Time: Aug 29, 2014 at 12:09:35 PM

Latest Report: Aug 29, 2014 at 11:00 AM


Visibility: 9 mi

Pressure: 29.97 "Hg

Humidity: 80%

Dew point: 58 °F

Location of Gronau (Westfalen)Location

Historic Weather in Gronau (Westfalen) — Graph

°F

Gronau (Westfalen) temperature yesterday

Maximum temperature yesterday: 72 °F (at 3:00 PM)
Minimum temperature yesterday: 48 °F (at 1:00 AM)
Average temperature yesterday: 61 °F

Past Weeks' High & Low Weather Summary

 TemperatureHumidityPressure
High72 °F (Aug 28, 3:00 PM)100% (Aug 16, 6:00 AM)30.08 "Hg (Aug 16, 6:00 AM)
Low42 °F (Aug 27, 6:00 AM)46% (Aug 27, 5:00 PM)29.60 "Hg (Aug 18, 8:00 AM)
Average56 °F85%29.90 "Hg
* Reported Aug 14 10:00 AM — Aug 29 10:00 AM, Gronau (Westfalen), Weather by CustomWeather, © 2014

Note: Actual official high and low records may vary slightly from our data, if they occured in-between our weather recording intervals... More about our weather records

Advertising

Gronau (Westfalen) weather history for previous 24 hours

 ConditionsComfort  
Time TempWeatherWind HumidityBarometerVisibility
10:00 AM
Aug 29
61 °FPartly sunny.6 mph89%29.96 "Hg6 mi
9:00 AM59 °FFog.5 mph94%29.96 "Hg6 mi
8:00 AM59 °FFog.5 mph95%29.95 "Hg4 mi
7:00 AM58 °FFog.5 mph97%29.94 "Hg2 mi
6:00 AM59 °FFog.5 mph97%29.94 "Hg2 mi
5:00 AM59 °FFog.5 mph98%29.94 "Hg2 mi
4:00 AM59 °FOvercast.3 mph97%29.94 "Hg6 mi
3:00 AM60 °FLight rain. Low clouds.2 mph98%29.93 "Hg4 mi
2:00 AM60 °FRain. Low clouds.3 mph97%29.94 "Hg3 mi
1:00 AM63 °FRain. Overcast.7 mph87%29.93 "Hg7 mi
12:00 AM65 °FOvercast.3 mph83%29.92 "Hg18 mi
11:00 PM
Aug 28
65 °FPassing clouds.2 mph84%29.92 "Hg19 mi
10:00 PM64 °FPassing clouds.2 mph85%29.92 "Hg18 mi
9:00 PM66 °FPassing clouds.2 mph81%29.92 "Hg22 mi
8:00 PM68 °FPassing clouds.3 mph74%29.92 "Hg25 mi
7:00 PM70 °FOvercast.5 mph68%29.93 "Hg28 mi
6:00 PM71 °FOvercast.3 mph67%29.93 "Hg25 mi
5:00 PM71 °FOvercast.3 mph64%29.94 "Hg19 mi
4:00 PM71 °FOvercast.6 mph61%29.94 "Hg25 mi
3:00 PM72 °FScattered clouds.6 mph61%29.95 "Hg19 mi
2:00 PM71 °FPartly sunny.5 mph65%29.96 "Hg16 mi
1:00 PM70 °FPartly sunny.3 mph67%29.97 "Hg17 mi
12:00 PM69 °FScattered clouds.3 mph72%29.98 "Hg16 mi
Weather by CustomWeather, © 2014

See weather overviewHow to use our weather pages